[[{"header":{"parameterUnit":"m.s-1","parameterCategory":1,"la1":30.2991,"la2":30.254,"lo1":-89.0895,"lo2":-89.0444,"dy":0.0017,"dx":0.0017,"nx":28,"ny":28,"refTime":"2024-07-11T09:00:00:Z","depth":0,"parameterNumber":2,"parameterNumberName":"U-component_of_WINDS"},"data":[0,0,0,0,0,0,0,0,0,0,0,0,0,0,0,0,0,0,0,0,0,0,0,0,0,0,0,0,0,0,0,0,0,0,0,0,0,0,0,0,0,0,0,0,0,0,0,0,0,0,0,0,0,0,0,0,0,0,3.7915,3.7917,0,3.8038,3.804,3.8041,3.7991,3.7988,3.7985,3.7983,3.811,3.8116,3.8122,0,0,0,0,0,0,0,0,0,0,0,0,0,3.7636,3.7641,3.7915,3.7917,3.7918,3.8038,3.804,3.8041,3.7992,3.7988,3.7985,3.7981,3.8108,3.8115,3.8122,0,0,0,0,0,0,0,0,0,0,0,0,0,3.7758,3.7643,3.7915,3.7908,3.7908,3.8038,3.804,3.8042,3.7992,3.7988,3.7984,3.798,3.8105,3.8114,3.8123,3.8267,0,0,3.8151,3.8155,0,0,0,0,0,0,0,0,3.7751,3.7768,3.7907,3.7909,3.7909,3.7995,3.7988,3.8118,3.7993,3.7961,3.7982,3.7977,3.8075,3.8087,3.8119,3.8273,3.8279,3.8152,3.8158,3.8162,3.8164,0,0,0,0,0,0,0,3.7743,3.7763,3.7964,3.7909,3.7911,3.7898,3.7911,3.8012,3.8041,3.7963,3.796,3.7975,3.8075,3.8111,3.8122,3.8281,3.8152,3.816,3.8166,3.8169,3.8555,3.856,0,0,0,0,0,0,3.7734,3.7756,3.796,3.7968,3.7818,3.7907,3.7921,3.7972,3.804,3.8046,3.7979,3.7972,3.8097,3.8111,3.8126,3.8297,3.8162,3.817,3.8175,3.8551,3.8556,3.8561,0,0,0,0,0,0,3.7728,3.7753,3.7955,3.7861,3.7886,3.7916,3.7974,3.7977,3.8012,3.8051,3.8056,3.801,3.8094,3.8113,3.8232,3.83,3.8174,3.8183,3.8545,3.8552,3.8559,3.8641,0,0,0,0,0,0,3.772,3.7751,3.7807,3.7863,3.7891,3.8059,3.7978,3.7982,3.8028,3.8021,3.8082,3.8088,3.8092,3.8218,3.8241,3.8311,3.819,3.8539,3.8548,3.8557,3.8632,3.865,3.8665,0,0,0,0,0,3.7711,3.7826,3.781,3.7835,3.7961,3.8063,3.8079,3.8082,3.8034,3.8089,3.8114,3.8086,3.8289,3.8231,3.8256,3.833,3.8535,3.8546,3.8556,3.8624,3.8646,3.8664,0,0,0,0,0,0,3.7778,3.7833,3.7816,3.7953,3.8003,3.8055,3.8125,3.8105,3.8171,3.8162,3.8162,3.8177,3.8298,3.8326,3.826,3.8471,3.8405,3.8421,3.8448,3.8469,3.8485,3.8476,3.8197,0,0,0,0,0,3.7809,3.7887,3.7931,3.8047,3.8074,3.8095,3.814,3.8137,3.819,3.8211,3.8245,3.8297,3.8372,3.8423,3.8494,3.8636,3.8647,3.8698,3.8715,3.8728,3.8742,3.8816,3.8838,3.8597,3.8597,3.8596,0,0,3.7874,3.7913,3.7963,3.8062,3.8101,3.8181,3.8114,3.8203,3.8262,3.8225,3.8338,3.8364,3.8423,3.8552,3.8611,3.8579,3.8811,3.8742,3.8752,3.8759,3.8829,3.8852,3.8872,3.8604,3.8603,3.8601,0,0,3.8032,3.807,3.817,3.821,3.8269,3.8282,3.8306,3.836,3.8375,3.8489,3.8462,3.8532,3.8663,3.8705,3.8743,3.8914,3.8889,3.8937,3.9023,3.9095,3.9114,3.9131,3.9189,3.921,3.8951,3.8951,3.8951,0,3.8104,3.8225,3.8224,3.8314,3.8357,3.8326,3.8426,3.8465,3.8545,3.8576,3.8538,3.8699,3.8737,3.8874,3.8915,3.8949,3.8974,3.893,3.9111,3.9128,3.9144,3.9199,3.9222,3.8956,3.8956,3.8955,3.8955,0,3.831,3.8393,3.8467,3.8543,3.8595,3.869,3.8702,3.8754,3.8746,3.8763,3.8877,3.892,3.8999,3.9031,3.9026,3.9167,3.9145,3.911,3.9043,3.9172,3.9224,3.9246,3.8964,3.8962,3.896,3.8959,0,0,3.8516,3.8588,3.8615,3.8648,3.871,3.8774,3.8866,3.8942,3.8986,3.9042,3.9118,3.9227,3.9194,3.9238,3.9236,3.9299,3.9428,3.9255,3.9256,3.9284,3.9584,3.9609,3.9634,3.9412,3.9416,3.942,3.9578,0,3.8677,3.8838,3.8839,3.8987,3.9063,3.9033,3.9113,3.9159,3.9176,3.9242,3.9261,3.9338,3.929,3.9315,3.9376,3.9399,3.9488,3.9388,3.9482,3.9485,3.9467,3.9662,3.9689,3.9837,3.9599,3.9602,3.9605,0,3.8888,3.8948,3.9103,3.9151,3.9183,3.9255,3.9322,3.9386,3.9437,3.9445,3.9492,3.948,3.9572,3.9503,3.9629,3.9561,3.96,3.9616,3.9622,3.963,3.9552,3.9673,3.9884,3.9906,3.9638,3.9635,3.9633,0,3.9019,3.914,3.9247,3.9277,3.9336,3.9386,3.9413,3.946,3.9504,3.9563,3.9591,3.9661,3.9699,3.9753,3.9759,3.9709,3.9885,3.9817,3.9893,3.9893,3.9932,3.9929,4.015,3.9959,3.9959,3.9958,3.9958,0,3.9199,3.9295,3.9307,3.9373,3.9478,3.9477,3.9582,3.9604,3.9645,3.9714,3.9693,3.9759,3.9763,3.983,3.9836,3.9938,3.9956,3.9964,3.9964,3.9965,3.9964,3.9989,3.9979,3.9964,3.9963,3.9962,3.9961,0,3.9364,3.9376,3.9491,3.9536,3.955,3.9626,3.9664,3.9726,3.974,3.9828,3.9848,3.9871,3.9948,3.9959,4.005,4.0054,4.0176,4.0166,4.0158,4.0156,4.0231,4.0223,4.0476,4.0508,4.0297,4.0299,4.0301,0,3.9477,3.955,3.9602,3.9646,3.9675,3.9747,3.9791,3.9792,3.9839,3.9901,3.9955,4.003,4.009,4.0214,4.0238,4.0307,4.0298,4.0381,4.0308,4.0306,4.0297,4.0292,4.0298,4.0395,4.0398,4.04,4.0401,0,3.9676,3.9678,3.9742,3.9808,3.9861,3.9914,3.9963,4.0,4.0007,4.0061,4.0139,4.0185,4.0276,4.035,4.0417,4.0444,4.0424,4.0424,4.0444,4.0446,4.0438,4.0441,4.0195,4.0418,4.0416,4.0415,4.0414,4.0413,3.9818,3.988,3.9925,3.9997,4.0033,4.0079,4.0138,4.0159,4.0223,4.0297,4.0293,4.0378,4.0424,4.0512,4.0544,4.061,4.0583,4.0614,4.0621,4.0628,4.0634,4.0428,4.0623,4.0622,4.0622,4.0621,4.0621,0,4.0014,4.0041,4.0107,4.0175,4.023,4.0205,4.0257,4.0305,4.038,4.0424,4.0482,4.057,4.0641,4.0669,4.0738,4.0785,4.0777,4.0803,4.0799,4.0805,4.0656,4.063,4.0808,4.0808,4.0808,4.0808,4.0808,4.0808,4.0123,4.0225,4.0231,4.035,4.0376,4.0458,4.049,4.0531,4.0566,4.0664,4.0722,4.074,4.0777,4.0848,4.0911,4.0917,4.0943,4.0973,4.0975,4.0835,4.0816,4.0798,4.0774,4.0979,4.0979,4.1118,4.112,4.1121]},{"header":{"parameterUnit":"m.s-1","parameterCategory":1,"la1":30.2991,"la2":30.254,"lo1":-89.0895,"lo2":-89.0444,"dy":0.0017,"dx":0.0017,"nx":28,"ny":28,"refTime":"2024-07-11T09:00:00:Z","depth":0,"parameterNumber":3,"parameterNumberName":"V-component_of_WINDS"},"data":[0,0,0,0,0,0,0,0,0,0,0,0,0,0,0,0,0,0,0,0,0,0,0,0,0,0,0,0,0,0,0,0,0,0,0,0,0,0,0,0,0,0,0,0,0,0,0,0,0,0,0,0,0,0,0,0,0,0,2.1062,2.1063,0,2.1159,2.116,2.1161,2.1152,2.1151,2.1149,2.1148,2.1247,2.1251,2.1255,0,0,0,0,0,0,0,0,0,0,0,0,0,2.0869,2.0872,2.1062,2.1064,2.1065,2.1159,2.116,2.1162,2.1152,2.1151,2.1149,2.1147,2.1246,2.125,2.1255,0,0,0,0,0,0,0,0,0,0,0,0,0,2.0958,2.0874,2.1062,2.1072,2.1073,2.1159,2.116,2.1162,2.1153,2.115,2.1148,2.1146,2.1244,2.125,2.1256,2.1338,0,0,2.1274,2.1277,0,0,0,0,0,0,0,0,2.0953,2.0965,2.1069,2.1071,2.1073,2.1141,2.1128,2.1221,2.1153,2.1123,2.1148,2.1145,2.1214,2.1222,2.1245,2.1343,2.1347,2.1275,2.1279,2.1281,2.1283,0,0,0,0,0,0,0,2.0947,2.0961,2.1101,2.107,2.1073,2.1071,2.1081,2.1146,2.118,2.1125,2.1125,2.1136,2.1214,2.1239,2.1247,2.1348,2.1275,2.128,2.1284,2.1286,2.1516,2.1519,0,0,0,0,0,0,2.0938,2.0956,2.1098,2.1104,2.1006,2.1076,2.1087,2.1122,2.1179,2.1185,2.1138,2.1135,2.123,2.124,2.1251,2.1349,2.1281,2.1287,2.129,2.1514,2.1517,2.1519,0,0,0,0,0,0,2.0934,2.0951,2.1094,2.103,2.1047,2.1082,2.112,2.1125,2.115,2.1189,2.1194,2.1157,2.1229,2.1242,2.1316,2.1353,2.1289,2.1295,2.1511,2.1515,2.1518,2.1548,0,0,0,0,0,0,2.0929,2.095,2.0982,2.103,2.1051,2.1158,2.1123,2.1128,2.116,2.1158,2.1208,2.1214,2.1228,2.1307,2.1322,2.136,2.13,2.1508,2.1512,2.1517,2.1544,2.1552,2.156,0,0,0,0,0,2.0922,2.0987,2.0983,2.1001,2.1092,2.116,2.1172,2.1186,2.1163,2.1195,2.122,2.1213,2.1346,2.1315,2.1331,2.1372,2.1505,2.1511,2.1517,2.1541,2.1551,2.1559,0,0,0,0,0,0,2.0943,2.0994,2.099,2.1073,2.1112,2.1158,2.1199,2.1197,2.1243,2.1239,2.1254,2.1266,2.134,2.1363,2.1327,2.1453,2.1423,2.1432,2.1435,2.1445,2.1453,2.1445,2.1305,0,0,0,0,0,2.0957,2.1008,2.105,2.1119,2.1138,2.1165,2.1196,2.1203,2.1244,2.1261,2.1291,2.1331,2.1381,2.1415,2.1464,2.1547,2.1557,2.1583,2.1591,2.1597,2.1605,2.1649,2.166,2.1538,2.1538,2.1538,0,0,2.0987,2.1021,2.1052,2.1124,2.1155,2.1207,2.118,2.1236,2.1275,2.1269,2.134,2.1364,2.1409,2.1488,2.1524,2.151,2.1641,2.1604,2.1609,2.1613,2.1656,2.1667,2.1677,2.1541,2.1541,2.154,0,0,2.1067,2.1099,2.1159,2.119,2.1237,2.1254,2.1269,2.1315,2.133,2.1402,2.1398,2.1444,2.1531,2.1563,2.1591,2.1682,2.1677,2.1697,2.1738,2.1781,2.179,2.1799,2.183,2.1841,2.1705,2.1705,2.1705,0,2.1099,2.1177,2.119,2.1247,2.1278,2.1274,2.1334,2.1364,2.1425,2.1446,2.1429,2.1538,2.1569,2.1653,2.1675,2.1698,2.1714,2.1692,2.1788,2.1797,2.1805,2.1835,2.1846,2.1707,2.1707,2.1707,2.1706,0,2.1212,2.1267,2.1309,2.1367,2.1403,2.1461,2.1482,2.1517,2.152,2.1539,2.1611,2.1647,2.1703,2.1723,2.1728,2.1809,2.1798,2.1785,2.1754,2.1819,2.1847,2.1858,2.171,2.1709,2.1709,2.1708,0,0,2.131,2.1373,2.1388,2.1413,2.1464,2.1506,2.1564,2.1617,2.1646,2.1688,2.1735,2.1808,2.1796,2.1827,2.1835,2.1873,2.194,2.1854,2.1855,2.1868,2.2029,2.2038,2.2051,2.1937,2.1939,2.1941,2.2025,0,2.1395,2.1496,2.1509,2.1599,2.1648,2.1645,2.1694,2.1731,2.1749,2.1793,2.1814,2.1865,2.1845,2.1864,2.1901,2.1924,2.1972,2.1918,2.1981,2.1983,2.1968,2.2066,2.2077,2.2154,2.2036,2.2038,2.2039,0,2.1508,2.1551,2.1646,2.1688,2.1709,2.1754,2.1803,2.1846,2.1886,2.1897,2.1931,2.1933,2.1992,2.1959,2.2039,2.2001,2.2027,2.2042,2.2046,2.2052,2.2014,2.2074,2.218,2.2191,2.2057,2.2056,2.2054,0,2.1568,2.165,2.1717,2.1739,2.179,2.1821,2.1844,2.1882,2.1913,2.1955,2.1975,2.2025,2.2051,2.2089,2.2104,2.2079,2.2183,2.2152,2.2193,2.2192,2.2214,2.2213,2.2325,2.2233,2.2232,2.2232,2.2232,0,2.1661,2.1718,2.1744,2.1785,2.1849,2.1863,2.1925,2.1947,2.198,2.2025,2.2025,2.2067,2.2085,2.2129,2.2142,2.2205,2.2218,2.2227,2.223,2.2227,2.2225,2.2244,2.2238,2.2235,2.2235,2.2234,2.2234,0,2.1739,2.1758,2.183,2.1872,2.1884,2.1929,2.1965,2.2004,2.2022,2.2078,2.2092,2.2119,2.2171,2.219,2.2254,2.2262,2.2335,2.2333,2.2321,2.2322,2.2361,2.2356,2.2488,2.2506,2.2403,2.2404,2.2404,0,2.1796,2.184,2.1886,2.1916,2.1939,2.1987,2.2018,2.2033,2.2065,2.2113,2.2146,2.2198,2.224,2.2322,2.2348,2.2396,2.2395,2.2438,2.2402,2.2397,2.2394,2.2391,2.2395,2.2444,2.2445,2.2446,2.2447,0,2.1896,2.1903,2.1948,2.1995,2.2032,2.207,2.2107,2.2132,2.2151,2.2187,2.224,2.2273,2.2336,2.2387,2.2436,2.2459,2.2456,2.2458,2.247,2.2467,2.2457,2.2462,2.2338,2.2455,2.2454,2.2453,2.2453,2.2453,2.1965,2.2003,2.2041,2.209,2.2119,2.2153,2.2192,2.2213,2.2258,2.231,2.2316,2.2373,2.241,2.2475,2.25,2.2544,2.2532,2.255,2.2554,2.2558,2.256,2.2451,2.2553,2.2553,2.2553,2.2552,2.2552,0,2.2064,2.2087,2.2132,2.2184,2.2222,2.2215,2.2255,2.2288,2.2337,2.2372,2.2413,2.2473,2.2521,2.255,2.2599,2.2628,2.2628,2.264,2.2638,2.2643,2.2568,2.2553,2.264,2.264,2.264,2.2639,2.2639,2.2639,2.212,2.2183,2.2194,2.2272,2.2295,2.235,2.2373,2.2405,2.2432,2.2499,2.2539,2.2557,2.2589,2.264,2.2684,2.2691,2.2708,2.2722,2.2728,2.2657,2.2648,2.264,2.2625,2.2726,2.2726,2.2798,2.2799,2.28]}]]